Location: Joplin
(37.0842°N, 94.5131°W)
Time: 00:26:48
(UTC-05:00)

Tiangong 2 - Visible Passes

Search period start: 19 August 2018 00:00
Search period end: 29 August 2018 00:00
Orbit: 384 x 395 km, 42.8° (Epoch: 18 August)

Date Brightness Start Highest point End Pass type
(mag) Time Alt. Az. Time Alt. Az. Time Alt. Az.
19 Aug 1.9 04:39:14 49° ENE 04:39:14 49° ENE 04:41:42 10° ENE visible
20 Aug 2.1 05:16:20 26° WNW 05:17:35 38° NNW 05:20:37 10° ENE visible
21 Aug 3.3 04:21:05 27° NE 04:21:05 27° NE 04:22:46 10° ENE visible
21 Aug 2.8 05:54:01 10° WNW 05:56:50 28° N 05:59:40 10° ENE visible
22 Aug 2.5 04:58:10 28° NNW 04:58:47 30° N 05:01:41 10° ENE visible
23 Aug 4.2 04:02:57 16° NE 04:02:57 16° NE 04:03:46 10° ENE visible
23 Aug 2.9 05:35:16 10° WNW 05:38:05 28° N 05:40:56 10° ENE visible
24 Aug 2.9 04:40:06 27° N 04:40:06 27° N 04:42:50 10° ENE visible
24 Aug 2.2 06:14:13 10° WNW 06:17:19 44° NNE 06:20:24 10° E visible
25 Aug 2.6 05:17:20 17° NW 05:19:17 33° N 05:22:14 10° ENE visible
26 Aug 3.6 04:22:21 23° NE 04:22:21 23° NE 04:24:04 10° ENE visible
26 Aug 1.3 05:55:11 10° WNW 05:58:22 72° NNE 06:01:34 10° ESE visible
27 Aug 2.0 04:59:50 41° NNW 05:00:23 46° NNE 05:03:29 10° E visible
28 Aug 4.5 04:05:11 11° E 04:05:11 11° E 04:05:19 10° E visible
28 Aug 1.1 05:37:33 23° WNW 05:39:20 60° SSW 05:42:29 10° SE visible
